Theta_e
314 314 314 314 314 313 312 312 312 312 312 311 310 310 311 313 313 313 314 315 316 316 317 317 315 315 319 325 329 330 320 318 323 323 322 330 332 332 334 333 332 334 338 346 348 350 352
315 316 316 316 316 315 315 313 312 311 311 311 310 310 310 311 312 312 314 315 316 316 317 317 316 315 322 328 329 329 319 320 323 322 324 327 332 330 332 333 335 339 346 348 350 352 353
316 316 316 317 317 317 318 317 315 313 312 311 311 310 310 311 312 313 314 316 316 317 317 317 316 319 320 326 326 324 319 320 322 322 330 326 328 328 330 334 333 341 348 351 350 353 354
317 318 318 318 319 319 320 319 319 318 316 313 312 311 311 311 312 313 314 315 316 319 317 316 319 322 320 319 321 324 323 322 321 321 323 323 325 327 332 331 333 340 342 349 346 353 352
319 319 320 320 320 320 320 320 320 320 320 318 315 313 312 311 311 313 315 315 318 317 315 320 324 324 320 321 324 326 325 323 321 321 322 324 328 329 331 335 336 335 339 336 346 344 353
319 319 319 320 320 320 320 321 321 321 320 320 319 316 312 312 312 313 315 316 322 321 320 325 324 322 321 324 323 323 325 323 325 326 329 330 331 334 333 334 337 336 335 335 338 346 347
319 319 319 319 320 320 320 321 321 321 320 320 320 318 313 312 312 313 316 317 323 324 326 327 324 318 322 323 323 321 323 324 324 328 341 328 340 339 332 331 332 333 333 334 348 348 350
319 319 320 320 320 320 320 320 320 321 321 320 320 320 314 312 313 315 318 320 321 321 327 322 323 323 322 323 327 323 321 325 326 336 327 337 342 333 328 329 329 331 331 340 348 348 349
319 320 320 320 320 320 320 321 320 321 320 320 320 320 316 312 313 317 314 319 319 319 325 325 323 325 326 326 327 325 323 323 327 330 332 342 336 326 328 328 328 331 330 343 350 345 341
320 320 320 320 320 320 320 321 320 321 320 320 320 320 317 311 314 313 317 318 318 320 327 323 325 326 325 326 326 324 321 324 324 331 329 335 326 327 333 331 327 328 326 334 350 350 349
321 321 320 320 320 320 321 320 320 321 320 320 320 320 316 312 311 315 317 317 320 318 322 327 324 323 323 326 324 322 320 323 325 325 327 332 328 329 327 328 327 327 333 344 346 345 345
321 321 321 320 320 320 320 320 320 321 321 321 321 318 314 311 313 315 316 319 319 323 326 330 325 326 326 323 321 320 323 322 322 323 323 326 322 323 325 324 325 328 334 335 335 337 343
322 322 321 321 321 321 320 320 320 321 321 321 321 317 313 311 316 317 317 320 327 324 324 327 325 325 326 325 323 323 324 324 325 325 325 325 325 323 323 325 322 325 331 335 338 341 336
322 322 322 321 321 322 321 320 320 320 321 321 318 316 315 315 314 315 316 326 327 321 325 327 322 323 326 323 324 322 323 325 320 323 324 326 327 324 322 326 326 325 326 329 331 330 332
323 322 322 321 321 322 320 321 320 320 321 321 317 316 320 320 319 316 322 328 325 323 326 323 321 327 325 322 323 322 324 325 324 322 326 326 327 321 323 322 324 324 326 326 335 341 340
322 323 322 321 321 321 320 321 321 320 321 318 316 317 320 321 318 316 324 322 321 322 325 320 324 324 326 324 323 323 322 322 323 321 324 324 327 323 329 330 331 324 329 333 338 341 338
321 321 322 321 321 319 320 321 321 320 321 316 314 328 318 318 317 322 323 323 321 321 322 321 323 324 324 323 324 323 323 321 321 320 321 321 323 324 331 336 333 332 337 337 340 340 341
320 321 322 321 321 320 321 321 321 320 320 317 314 332 320 319 323 318 324 321 318 323 320 322 322 324 325 322 322 324 325 322 319 320 322 321 324 326 330 336 335 335 337 337 331 350 346
319 320 322 322 321 319 321 321 320 319 319 314 323 325 321 318 326 325 324 324 322 327 326 325 325 323 325 331 330 322 321 326 325 321 322 323 328 337 339 336 334 339 339 335 336 339 348
319 320 322 322 321 320 320 321 320 319 319 315 325 334 327 322 319 326 333 336 333 327 326 326 328 324 335 335 334 333 328 335 334 330 331 324 328 327 328 333 339 342 340 337 339 342 347
318 319 322 322 321 320 320 320 320 320 319 313 323 330 326 332 330 332 333 334 335 333 330 328 326 325 333 338 337 339 336 336 334 339 329 326 331 334 338 337 336 338 339 338 340 340 341
320 320 322 322 321 320 320 319 319 319 319 313 322 324 324 327 327 334 330 335 334 334 334 332 325 330 329 338 338 339 339 337 337 333 334 333 342 339 340 339 338 338 338 339 339 339 339
320 321 321 321 321 320 319 319 317 318 320 317 314 314 322 325 332 336 334 333 333 331 332 332 333 332 335 335 334 333 334 333 336 337 337 340 340 340 342 342 339 341 340 339 339 338 339
321 321 321 320 320 320 319 317 316 315 315 315 314 314 323 325 328 334 329 328 330 331 333 333 332 335 334 328 328 331 332 333 334 333 334 341 343 341 345 342 344 338 332 336 338 338 338
320 320 319 319 319 317 318 316 314 314 315 315 316 315 321 322 321 324 328 328 328 331 332 332 331 330 329 329 334 336 334 335 334 331 332 335 340 342 347 344 339 336 337 338 339 336 337
319 319 318 317 316 315 316 315 314 314 314 316 315 315 317 324 323 322 325 324 331 333 336 331 328 327 327 333 336 341 338 336 336 336 329 331 335 339 342 340 340 339 332 333 335 337 334
317 316 316 315 314 314 314 314 314 314 313 315 316 315 316 323 322 321 325 324 323 329 333 330 329 331 326 334 339 339 337 334 337 339 340 338 338 338 339 339 335 333 331 331 340 339 336
314 314 314 314 313 314 314 314 314 313 313 314 316 316 316 321 322 320 321 323 324 329 332 329 332 332 335 337 341 337 336 333 333 334 337 340 340 339 336 340 339 332 332 337 339 334 336
313 313 313 313 313 313 313 313 314 313 312 313 315 315 315 318 323 317 319 320 320 321 323 326 332 333 331 334 333 333 335 331 332 337 328 336 335 338 338 339 335 334 336 334 331 336 335
Wind_Speed
17 17 18 19 20 20 21 20 20 21 21 22 22 23 24 24 24 23 24 23 22 19 17 12 9 11 3 1 1 5 11 15 12 5 1 2 3 1 3 2 1 1 4 7 13 13 10
17 18 18 19 20 21 21 21 22 22 22 22 24 24 24 24 25 25 25 24 22 20 16 9 7 7 2 2 2 1 13 15 8 4 1 1 3 2 2 1 3 3 11 12 9 11 7
16 17 18 19 20 21 22 22 22 23 24 24 25 25 25 25 26 26 24 23 22 20 11 4 4 4 1 1 4 5 10 9 6 3 0 0 1 2 1 2 2 4 10 11 4 5 5
16 16 17 18 20 21 22 22 24 24 25 26 26 26 28 26 26 25 23 23 20 14 2 1 3 2 3 2 3 4 8 6 6 6 2 2 1 2 3 1 4 3 3 3 3 3 6
16 17 18 19 20 21 22 23 24 25 26 28 28 29 30 27 26 24 22 20 9 4 3 2 1 1 1 2 2 3 9 4 5 3 0 2 2 4 2 6 4 6 2 2 5 2 4
16 17 19 20 21 22 23 24 25 26 27 29 31 31 31 28 26 23 21 12 1 1 1 1 0 2 1 1 1 2 8 6 3 6 4 1 3 3 5 5 3 2 2 1 3 3 3
17 17 19 21 22 23 24 25 26 27 28 30 33 33 33 30 25 22 14 1 2 2 2 3 2 2 3 4 1 3 5 5 3 3 4 3 2 2 4 2 2 2 3 3 4 1 3
19 20 20 22 23 25 26 28 26 28 29 31 34 35 35 31 23 13 4 1 6 2 5 5 7 6 6 1 1 2 7 5 3 8 3 3 7 5 4 3 1 5 4 2 5 2 1
20 23 25 25 25 27 28 30 28 29 30 32 35 37 37 31 16 2 5 3 3 4 2 4 4 4 3 9 5 7 9 4 4 8 7 12 1 9 1 3 8 4 4 7 3 7 5
19 21 23 26 26 28 29 31 29 30 31 33 35 39 39 30 3 9 2 5 10 6 2 2 4 4 6 4 4 3 6 4 2 8 8 8 2 6 8 8 3 5 4 6 13 8 3
19 20 22 24 27 28 30 31 30 31 33 35 36 41 37 22 11 3 3 7 3 3 1 2 3 1 1 6 7 3 1 3 8 6 5 9 5 7 6 6 6 3 1 9 6 4 3
18 20 22 24 27 28 30 31 31 32 34 37 38 43 30 8 5 4 5 3 3 1 2 2 4 6 7 1 2 3 3 5 3 5 1 5 0 3 4 4 6 14 10 10 5 2 4
17 20 22 24 27 27 30 31 32 34 37 39 45 36 17 7 1 2 4 4 2 3 2 3 3 6 10 6 4 4 7 8 7 7 7 3 9 3 4 4 4 7 6 3 3 4 4
18 19 21 24 27 27 30 31 33 35 39 41 44 20 7 4 3 8 1 3 4 1 4 2 1 5 12 8 6 4 8 10 2 4 5 9 8 7 6 8 3 8 5 4 5 5 1
18 19 21 24 28 28 30 32 33 36 39 47 32 7 3 6 5 3 2 4 3 4 2 5 2 5 5 5 4 5 8 12 11 10 3 6 3 1 3 2 1 5 5 3 5 1 3
19 18 21 23 28 27 30 32 34 36 40 39 15 4 6 5 10 2 1 3 3 4 3 1 3 4 9 12 8 9 9 5 9 13 9 2 4 2 4 2 9 3 7 4 1 4 5
19 19 20 22 25 26 29 31 34 37 41 24 4 1 9 11 3 1 4 5 5 6 5 3 2 1 4 7 10 7 6 3 7 10 6 6 1 5 2 1 3 5 4 5 4 2 2
19 18 18 19 21 23 28 30 33 36 42 15 4 1 5 11 1 1 2 3 2 5 3 7 3 8 6 8 7 8 10 2 7 12 11 6 2 3 2 4 1 1 2 6 5 5 1
17 16 17 17 19 22 26 30 32 34 34 9 2 2 3 4 2 1 2 4 4 4 5 3 3 6 4 5 4 7 7 3 9 11 11 10 5 3 5 4 3 4 4 1 5 2 7
14 15 15 15 17 21 25 29 31 32 30 6 2 1 1 2 1 1 2 2 4 4 6 5 4 3 4 4 2 7 6 4 5 6 4 7 5 8 8 2 1 5 6 6 4 4 5
13 13 13 13 15 18 23 27 29 30 25 4 3 2 2 0 1 2 1 2 4 4 4 4 3 7 5 4 4 5 4 5 4 7 3 7 6 5 2 1 2 2 6 10 5 2 5
12 12 11 12 13 16 21 25 27 28 18 4 3 3 2 2 3 3 2 1 4 5 3 2 3 8 6 4 4 10 7 4 3 5 4 1 3 5 4 2 5 4 5 10 7 4 10
10 10 10 10 11 14 18 22 25 25 18 5 3 1 2 1 2 2 1 2 2 7 5 12 12 6 2 2 3 5 7 7 5 6 4 4 7 6 5 1 4 5 12 11 5 5 5
8 8 8 8 10 12 15 19 20 19 20 7 2 2 2 2 2 2 4 6 9 7 5 8 8 3 3 6 8 10 11 11 11 9 4 7 6 0 4 5 6 2 2 4 10 7 12
6 6 6 8 10 11 13 16 15 15 16 11 2 2 2 3 3 4 6 5 10 4 3 3 5 4 0 3 2 3 1 3 5 6 6 3 3 4 4 6 2 2 4 5 7 5 11
3 3 5 7 9 10 12 12 13 13 15 12 1 1 1 3 1 4 5 4 4 6 3 1 1 4 1 0 2 3 3 2 2 2 5 6 4 0 3 4 7 1 3 3 4 4 1
3 4 6 7 8 10 10 11 11 12 13 13 1 1 1 3 3 2 2 3 3 2 4 4 7 3 1 1 2 1 3 0 4 4 4 2 2 4 4 4 3 3 3 7 5 2 3
4 5 6 7 8 9 10 10 10 11 12 11 3 2 2 2 8 5 4 4 2 0 3 6 3 1 2 2 1 2 2 2 2 1 2 5 5 3 3 3 5 5 5 4 3 3 2
6 6 6 7 8 9 10 10 9 11 11 10 2 3 4 5 5 6 13 16 15 10 3 1 3 2 2 2 1 2 1 2 1 3 1 3 2 1 4 1 2 1 2 2 1 3 5
Wind_Direction
29 26 26 23 20 17 14 14 10 7 3 0 358 354 348 345 344 342 341 340 335 334 334 332 338 342 6 220 345 339 159 162 170 172 137 58 34 78 60 15 285 328 49 59 118 138 131
29 28 25 24 22 19 16 12 10 6 3 360 355 353 348 344 341 340 337 335 331 328 326 319 333 350 344 116 340 26 159 167 174 164 142 178 41 32 100 5 39 50 101 103 110 122 121
26 25 23 22 20 18 16 13 10 7 3 359 354 351 348 342 339 337 335 334 328 324 320 301 337 4 248 106 108 91 150 180 188 179 171 112 94 1 326 93 44 99 101 103 89 134 109
20 19 19 18 16 13 12 10 8 6 3 360 355 351 347 342 338 333 331 331 327 328 329 242 23 7 257 143 272 236 178 186 200 203 274 328 99 75 24 328 42 78 78 115 144 153 127
15 13 13 11 8 7 6 5 3 3 0 358 354 350 345 340 337 332 330 326 326 40 96 80 61 353 137 263 256 214 181 174 159 175 238 104 58 54 66 114 91 35 82 68 161 17 143
13 11 9 7 3 1 359 359 359 357 356 355 353 348 345 341 336 330 329 325 81 49 65 32 311 236 292 78 312 148 175 152 153 139 140 106 64 70 39 53 83 54 7 320 204 175 85
11 8 4 2 1 359 355 354 353 353 352 352 351 347 345 342 335 329 334 306 253 168 178 240 156 273 275 311 264 176 171 145 116 119 177 60 273 44 65 98 112 248 281 277 116 131 106
5 2 0 358 357 356 354 352 350 350 349 349 349 345 344 343 335 333 17 49 95 52 303 236 253 267 259 256 263 185 156 161 156 157 141 223 253 151 124 124 52 276 312 125 107 81 178
357 355 356 356 354 353 351 349 348 348 347 347 347 345 342 342 335 35 325 142 147 1 273 291 212 217 205 171 193 180 180 137 150 153 176 229 178 148 350 349 327 311 284 185 157 122 87
353 351 351 350 350 350 349 346 346 346 345 345 345 342 339 340 354 336 292 159 301 198 324 253 223 237 156 188 166 183 187 141 122 177 167 225 174 237 287 295 263 300 305 186 152 174 196
352 350 348 347 348 347 347 345 346 343 342 343 342 338 334 334 294 248 155 322 126 179 274 102 167 59 137 194 130 162 214 96 159 152 201 213 224 239 255 239 186 314 218 142 144 110 186
352 349 350 347 345 346 346 346 344 342 341 341 338 335 327 321 267 242 276 349 161 232 243 128 145 156 158 124 93 112 155 74 95 118 61 177 140 240 215 171 196 149 107 92 89 69 255
345 348 349 347 342 343 344 345 344 342 341 338 335 332 303 242 221 153 347 163 193 226 355 148 172 169 175 165 156 152 167 173 180 186 198 215 238 229 173 220 141 180 181 125 159 200 268
343 342 344 344 339 341 345 346 344 342 340 338 334 331 323 242 179 263 239 156 224 256 265 342 59 142 189 161 190 159 152 186 132 143 162 198 199 196 164 223 167 184 220 219 238 227 198
334 340 339 340 339 341 346 346 344 342 341 338 337 345 38 344 232 179 189 194 238 212 309 324 122 166 173 175 183 169 205 209 197 195 219 161 210 176 24 64 298 155 198 50 116 83 265
328 334 338 337 337 341 345 345 345 344 342 340 336 344 8 346 144 148 154 226 241 226 307 250 238 202 174 176 172 196 181 182 195 198 215 179 177 56 142 136 62 235 129 156 165 192 238
325 328 334 335 336 340 343 346 348 347 346 345 355 85 19 83 6 95 198 236 260 247 225 232 273 256 202 168 192 174 192 179 208 174 194 163 266 151 198 38 165 149 170 69 110 324 266
319 324 331 332 336 340 343 348 352 352 349 354 335 102 330 353 112 2 196 211 268 276 199 252 254 241 214 177 171 195 207 253 153 148 172 180 132 245 281 143 86 265 179 188 234 186 192
316 321 326 329 336 340 346 350 354 355 356 349 20 333 11 355 151 129 273 265 259 259 235 217 253 216 188 175 185 203 197 171 155 160 160 169 208 147 150 151 167 224 156 158 114 128 188
310 316 320 326 335 339 346 350 355 356 355 4 304 138 76 71 26 325 338 278 282 247 260 245 265 190 164 156 196 178 171 155 159 195 121 154 155 202 214 165 120 175 181 190 263 201 152
305 308 317 326 336 342 345 351 354 358 355 9 5 59 13 9 137 322 283 318 302 306 243 243 220 226 184 143 151 170 158 139 94 147 109 198 185 174 93 187 194 173 190 177 207 167 267
296 302 316 325 332 342 345 350 353 0 2 56 5 357 351 297 295 284 163 242 300 313 279 283 250 352 207 179 193 179 156 190 167 167 131 137 162 155 152 161 182 166 167 185 218 226 257
294 301 311 319 332 342 346 350 353 1 15 35 21 5 292 350 329 261 176 329 297 332 262 257 298 296 141 333 1 84 91 84 111 142 126 150 147 178 186 203 188 209 206 193 198 198 227
291 297 302 317 333 340 346 346 352 3 14 16 1 318 310 292 284 278 322 308 290 302 269 303 332 264 47 111 115 93 83 96 85 71 89 141 130 39 131 184 201 67 17 252 228 241 218
282 290 300 322 336 345 341 342 354 6 1 357 324 330 342 299 303 292 328 304 308 317 210 262 347 338 333 335 104 103 50 157 67 43 66 85 144 119 161 210 331 243 185 175 194 224 223
280 300 318 333 343 349 338 347 356 1 356 358 343 26 313 309 203 286 321 330 336 337 333 154 11 319 32 112 107 145 166 116 165 112 69 74 73 286 161 208 237 207 147 202 201 254 19
314 323 328 335 342 347 348 347 352 1 354 353 298 278 294 281 263 189 273 328 312 304 298 323 341 350 313 74 82 131 126 311 167 182 164 136 67 211 170 217 257 251 226 176 197 21 50
331 325 328 334 339 341 343 346 353 358 353 355 306 236 330 282 278 227 237 212 238 230 1 333 285 109 1 71 128 124 136 127 207 112 184 194 175 172 152 187 220 167 151 212 70 96 122
310 312 321 321 324 333 345 351 357 353 350 351 314 257 279 241 282 271 255 248 250 248 311 275 317 300 1 64 76 116 154 168 178 196 128 217 246 263 227 207 26 258 287 7 212 139 155